Regional Weather Roundup
Issued by NWS Sterling, VA

Home | Current Version | Previous Version | Graphics & Text | Print | Product List | Glossary On
Versions: 1 2 3 4 5 6 7 8 9 10 11 12 13 14 15 16 17 18 19 20 21 22 23 24 25 26 27 28 29 30 31 32 33 34 35 36 37 38 39 40 41 42 43 44 45 46 47 48 49 50
000
ASUS41 KLWX 180211
RWRLWX

REGIONAL WEATHER ROUNDUP
NATIONAL WEATHER SERVICE BALTIMORE MD/WASHINGTON DC
1000 PM EDT TUE OCT 17 2017

Note: "FAIR" indicates few or no clouds below 12,000 feet
with no significant weather and/or obstructions to visibility.
 TC=TEMPERATURE CELSIUS

 * =Non NWS site. Station does not report precipitation (e.g. rain,
    snow, etc.), thunder, or fog.

DCZ001-MDZ009-015-VAZ040>042-051-053>054-180300-
WASHINGTON METRO

CITY           SKY/WX    TMP DP  RH WIND       PRES   REMARKS
WASHINGTON NAT CLEAR     53  42  66 SE6       30.34R
DULLES         CLEAR     44  39  82 CALM      30.33R
ANDREWS AFB    CLEAR     47  41  81 S3        30.32R
FT BELVOIR     CLEAR     43  41  93 CALM      30.34R
QUANTICO       CLEAR     48  45  89 W7        30.35R
COLLEGE PARK*  CLEAR     45  42  90 CALM      30.33R
LEESBURG*      CLEAR     45  43  93 SW3       30.33R
MANASSAS*      CLEAR     42  41  96 CALM      30.34R
GAITHERSBURG*  CLEAR     43  40  89 CALM      30.33R

$$

MDZ006>007-011-014-180300-
BALTIMORE METRO

CITY           SKY/WX    TMP DP  RH WIND       PRES   REMARKS
BWI AIRPORT    CLEAR     44  42  93 CALM      30.33R
MD SCIENCE CTR   N/A     54  40  59 MISG      30.33R
MARTIN STATE   CLEAR     48  46  93 CALM      30.34R
ANNAPOLIS      CLEAR     51  46  83 CALM      30.33R
FORT MEADE*    CLEAR     41  39  93 CALM      30.35R

$$

MDZ012-015-019>023-180300-
MARYLAND EASTERN SHORE

CITY           SKY/WX    TMP DP  RH WIND       PRES   REMARKS
OCEAN CITY     CLEAR     42  41  96 CALM      30.34R
SALISBURY      CLEAR     43  41  93 CALM      30.34R
CAMBRIDGE*     CLEAR     43  41  93 CALM      30.34R
EASTON*        CLEAR     46  41  81 CALM      30.37R

$$

MDZ017>025-180300-
SOUTHERN MARYLAND

CITY           SKY/WX    TMP DP  RH WIND       PRES   REMARKS
PATUXENT RIVER PTCLDY    42  41  96 SW5       30.34R
ST INIGOES     CLEAR     42  41  96 CALM      30.33S
LEONARDTOWN*   NOT AVBL

$$

MDZ003>005-180300-
NORTH CENTRAL MARYLAND

CITY           SKY/WX    TMP DP  RH WIND       PRES   REMARKS
FREDERICK*     CLEAR     45  45 100 CALM      30.35R
HAGERSTOWN APT CLEAR     52  36  54 S3        30.30R
WESTMINSTER*   CLEAR     48  39  71 CALM      30.31R

$$

MDZ501>502-180300-
WESTERN MARYLAND

CITY           SKY/WX    TMP DP  RH WIND       PRES   REMARKS
OAKLAND*       CLEAR     45  32  61 SW5       30.29R
CUMBERLAND*    CLEAR     50  43  76 N5        30.34R

$$

VAZ025>031-180300-
SHENANDOAH VALLEY

CITY           SKY/WX    TMP DP  RH WIND       PRES   REMARKS
WINCHESTER*    CLEAR     43  36  75 CALM      30.31R
FRONT ROYAL*   CLEAR     45  37  76 CALM      30.30R
LURAY*         CLEAR     45  39  81 CALM      30.31S
NEW MARKET*    CLEAR     41  37  83 CALM      30.31R
STAUNTON*      CLEAR     43  35  73 CALM      30.34R
WAYNESBORO*    CLEAR     46  37  71 SW3       30.33R

$$

WVZ021-048>050-054>055-180300-
EASTERN WEST VIRGINIA PANHANDLE

CITY           SKY/WX    TMP DP  RH WIND       PRES   REMARKS
MARTINSBURG    CLEAR     47  38  71 SW3       30.30R
PETERSBURG*    CLEAR     41  38  90 CALM      30.32R

$$

VAZ036>039-050-180300-
CENTRAL FOOTHILLS

CITY           SKY/WX    TMP DP  RH WIND       PRES   REMARKS
CHARLOTTESVILL CLEAR     46  40  79 CALM      30.34R
CULPEPER*      CLEAR     41  37  85 CALM      30.35R
ORANGE*        CLEAR     41  37  87 CALM      30.34R
GORDONSVILLE*  CLEAR     41  40  95 CALM      30.34R
WARRENTON*     CLEAR     37  33  85 CALM      30.33R

$$

VAZ055>057-180300-
NORTH AND CENTRAL PIEDMONT

CITY           SKY/WX    TMP DP  RH WIND       PRES   REMARKS
FREDERICKSBRG* CLEAR     44  41  88 CALM      30.34R
STAFFORD*      CLEAR     39  39 100 CALM      30.38R

$$

NCZ024-NYZ072-PAZ021-071-VAZ022-071-180300-
OTHER REGIONAL OBSERVATIONS

CITY           SKY/WX    TMP DP  RH WIND       PRES   REMARKS
NEW YORK CITY  CLEAR     55  37  50 MISG      30.31R
PHILADELPHIA   CLEAR     53  40  61 SW7       30.32R
PITTSBURGH     CLEAR     53  40  61 S3        30.27R
ROANOKE        CLEAR     53  40  61 CALM      30.36R
RICHMOND       CLEAR     46  41  82 CALM      30.34R
RALEIGH        PTCLDY    47  41  80 CALM      30.34R

$$

ANZ530>537-180300-
MARINE OBSERVATIONS

STATION/POSITION TIME  TEMP    WIND        PRES
                       AIR SEA DIR/SP/G
                 (UTC) (F)     (DEG/KT/KT) (MB)
THOMAS PT LIGHT  0200   58 67  230/  7/  8   N/A
BALT KEY BRIDGE  0136   54     200/  7/  8 1026.8R
COVE POINT       0136   56     230/  2/  4 1027.8R
LEWISETTA        0136   52 65  250/  4/  5 1027.2R
SOLOMONS ISLAND  0136   56 70  200/  4/  5 1026.8R
PINEY POINT      0148          230/  5/  6   N/A

$$




USA.gov is the U.S. government's official web portal to all federal, state and local government web resources and services.